[[{"header":{"parameterUnit":"m.s-1","parameterCategory":1,"la1":30.2991,"la2":30.254,"lo1":-89.0895,"lo2":-89.0444,"dy":0.0017,"dx":0.0017,"nx":28,"ny":28,"refTime":"2025-05-14T21:00:00:Z","depth":0,"parameterNumber":2,"parameterNumberName":"U-component_of_WINDS"},"data":[0,0,0,0,0,0,0,0,0,0,0,0,0,0,0,0,0,0,0,0,0,0,0,0,0,0,0,0,0,0,0,0,0,0,0,0,0,0,0,0,0,0,0,0,0,0,0,0,0,0,0,0,0,0,0,0,0,0,1.4077,1.4078,0,1.4148,1.4149,1.4149,1.4155,1.4154,1.4154,1.4153,1.4225,1.4228,1.423,0,0,0,0,0,0,0,0,0,0,0,0,0,1.3947,1.3949,1.4077,1.4078,1.4079,1.4148,1.4149,1.415,1.4155,1.4154,1.4153,1.4153,1.4224,1.4227,1.423,0,0,0,0,0,0,0,0,0,0,0,0,0,1.4009,1.395,1.4077,1.409,1.4092,1.4148,1.4149,1.415,1.4156,1.4154,1.4153,1.4152,1.4223,1.4227,1.4231,1.4278,0,0,1.4243,1.4245,0,0,0,0,0,0,0,0,1.4005,1.4014,1.4087,1.4089,1.4092,1.4142,1.4129,1.4193,1.4156,1.4131,1.4153,1.4152,1.4198,1.4204,1.422,1.4282,1.4285,1.4243,1.4246,1.4247,1.4248,0,0,0,0,0,0,0,1.4001,1.4011,1.4105,1.4088,1.4091,1.4092,1.41,1.4141,1.417,1.4133,1.4134,1.4142,1.4199,1.4216,1.4222,1.4286,1.4243,1.4247,1.4249,1.4251,1.439,1.4391,0,0,0,0,0,0,1.3994,1.4007,1.4103,1.4107,1.4045,1.4096,1.4104,1.4127,1.417,1.4175,1.4143,1.4142,1.421,1.4217,1.4224,1.4282,1.4247,1.4251,1.4253,1.4388,1.439,1.4391,0,0,0,0,0,0,1.3992,1.4003,1.41,1.4057,1.407,1.4099,1.4124,1.4129,1.4146,1.4177,1.4182,1.4155,1.4209,1.4219,1.4265,1.4285,1.4253,1.4256,1.4387,1.4389,1.4391,1.4399,0,0,0,0,0,0,1.3988,1.4002,1.402,1.4058,1.4072,1.414,1.4126,1.4131,1.4152,1.4152,1.419,1.4195,1.4209,1.4259,1.4269,1.429,1.4259,1.4385,1.4388,1.439,1.4397,1.4401,1.4404,0,0,0,0,0,1.3983,1.402,1.4021,1.4033,1.4096,1.4141,1.4149,1.4164,1.4154,1.4173,1.4193,1.4194,1.4281,1.4263,1.4275,1.4297,1.4384,1.4387,1.439,1.4395,1.44,1.4404,0,0,0,0,0,0,1.3984,1.4025,1.4027,1.4077,1.4105,1.4142,1.4166,1.4169,1.4201,1.4199,1.4216,1.4225,1.427,1.4288,1.4268,1.4345,1.4331,1.4337,1.4332,1.4337,1.434,1.4335,1.4263,0,0,0,0,0,1.399,1.4023,1.4057,1.4098,1.4112,1.4136,1.4157,1.4166,1.4196,1.4208,1.4232,1.4261,1.4295,1.4317,1.435,1.44,1.4408,1.4421,1.4424,1.4427,1.4432,1.4459,1.4465,1.4401,1.4401,1.4401,0,0,1.4002,1.4029,1.4049,1.4099,1.4122,1.4156,1.4146,1.4183,1.4208,1.4213,1.4258,1.4277,1.431,1.4359,1.4381,1.4375,1.4451,1.4431,1.4433,1.4436,1.4463,1.4469,1.4474,1.4403,1.4403,1.4402,0,0,1.4043,1.4066,1.4103,1.4126,1.4161,1.4177,1.4186,1.4222,1.4234,1.428,1.4284,1.4315,1.4373,1.4396,1.4416,1.4465,1.4467,1.4475,1.4495,1.4521,1.4526,1.4531,1.4548,1.4554,1.448,1.448,1.448,0,1.4054,1.4105,1.4121,1.4157,1.4179,1.4185,1.4222,1.4244,1.4288,1.4303,1.4296,1.4368,1.4392,1.4445,1.4457,1.4473,1.4483,1.4471,1.4524,1.4529,1.4534,1.455,1.4557,1.448,1.448,1.448,1.448,0,1.4117,1.4153,1.4178,1.422,1.4245,1.4281,1.4302,1.4325,1.4332,1.4349,1.4395,1.4423,1.4462,1.4475,1.4482,1.453,1.4525,1.4521,1.4507,1.454,1.4556,1.4563,1.4482,1.4481,1.4481,1.4481,0,0,1.416,1.421,1.4219,1.4239,1.4278,1.4306,1.4342,1.438,1.4399,1.4429,1.446,1.4509,1.4506,1.4528,1.4538,1.4561,1.4598,1.4555,1.4556,1.4562,1.4652,1.4655,1.4662,1.46,1.4601,1.4602,1.4649,0,1.4204,1.427,1.4285,1.4341,1.4374,1.4381,1.4413,1.444,1.4456,1.4487,1.4505,1.4539,1.4532,1.4545,1.4569,1.4589,1.4617,1.4586,1.4629,1.463,1.462,1.4671,1.4674,1.4717,1.4656,1.4657,1.4658,0,1.4265,1.4296,1.4356,1.4391,1.4405,1.4434,1.4469,1.4498,1.4529,1.454,1.4565,1.4572,1.461,1.4595,1.4648,1.4626,1.4645,1.4657,1.4659,1.4664,1.4646,1.4676,1.4731,1.4737,1.4668,1.4667,1.4666,0,1.429,1.4347,1.439,1.4407,1.4448,1.4468,1.4486,1.4516,1.4538,1.4569,1.4584,1.4619,1.4638,1.4665,1.4682,1.4669,1.4734,1.472,1.4743,1.4743,1.4756,1.4755,1.4814,1.4768,1.4768,1.4768,1.4768,0,1.4338,1.4374,1.4402,1.4428,1.4469,1.4486,1.4525,1.4544,1.457,1.46,1.4608,1.4636,1.4657,1.4688,1.4701,1.4742,1.4751,1.476,1.4764,1.476,1.4759,1.4772,1.4769,1.477,1.4769,1.4769,1.4769,0,1.4372,1.4393,1.444,1.4476,1.4486,1.4514,1.4544,1.457,1.4587,1.4624,1.4634,1.466,1.4697,1.4717,1.4762,1.4771,1.4818,1.4819,1.4807,1.4808,1.4831,1.4828,1.4901,1.4911,1.4858,1.4859,1.4859,0,1.4401,1.4429,1.4468,1.4489,1.4508,1.4541,1.4563,1.4581,1.4604,1.4642,1.4663,1.47,1.473,1.4788,1.4811,1.4846,1.4849,1.4872,1.4854,1.4849,1.4849,1.4847,1.485,1.4875,1.4875,1.4875,1.4876,0,1.4451,1.446,1.4492,1.4528,1.4554,1.4583,1.4611,1.4628,1.465,1.4675,1.4713,1.4737,1.4783,1.482,1.4857,1.4875,1.4879,1.4881,1.4888,1.4885,1.4877,1.4881,1.4816,1.4879,1.4879,1.4879,1.4879,1.4878,1.4484,1.4509,1.454,1.4576,1.4599,1.4625,1.4651,1.4671,1.4703,1.4743,1.4751,1.4791,1.4821,1.4871,1.4891,1.4922,1.4917,1.4928,1.493,1.4933,1.4933,1.4872,1.4928,1.4928,1.4928,1.4928,1.4928,0,1.4534,1.4554,1.4587,1.4626,1.4654,1.4656,1.4687,1.471,1.4745,1.4773,1.4803,1.4846,1.4882,1.4908,1.4944,1.4964,1.4966,1.4972,1.4971,1.4975,1.4936,1.4926,1.497,1.497,1.497,1.497,1.497,1.497,1.4563,1.4606,1.4618,1.4672,1.4692,1.4731,1.4749,1.4774,1.4796,1.4844,1.4873,1.489,1.4917,1.4955,1.4988,1.4995,1.5007,1.5013,1.502,1.4983,1.4978,1.4974,1.4965,1.5016,1.5016,1.5057,1.5058,1.5058]},{"header":{"parameterUnit":"m.s-1","parameterCategory":1,"la1":30.2991,"la2":30.254,"lo1":-89.0895,"lo2":-89.0444,"dy":0.0017,"dx":0.0017,"nx":28,"ny":28,"refTime":"2025-05-14T21:00:00:Z","depth":0,"parameterNumber":3,"parameterNumberName":"V-component_of_WINDS"},"data":[0,0,0,0,0,0,0,0,0,0,0,0,0,0,0,0,0,0,0,0,0,0,0,0,0,0,0,0,0,0,0,0,0,0,0,0,0,0,0,0,0,0,0,0,0,0,0,0,0,0,0,0,0,0,0,0,0,0,4.5614,4.5615,0,4.5679,4.568,4.568,4.5648,4.5647,4.5645,4.5644,4.5704,4.5707,4.571,0,0,0,0,0,0,0,0,0,0,0,0,0,4.5458,4.5461,4.5614,4.5615,4.5616,4.5679,4.568,4.5681,4.5649,4.5647,4.5645,4.5643,4.5703,4.5707,4.5711,0,0,0,0,0,0,0,0,0,0,0,0,0,4.5524,4.5462,4.5614,4.5608,4.5608,4.5679,4.568,4.5681,4.5649,4.5647,4.5644,4.5642,4.5702,4.5707,4.5711,4.579,0,0,4.5726,4.5728,0,0,0,0,0,0,0,0,4.5521,4.553,4.5608,4.5608,4.5608,4.5653,4.5647,4.5717,4.565,4.5633,4.5643,4.5641,4.5689,4.5695,4.5712,4.5793,4.5796,4.5726,4.5729,4.5731,4.5732,0,0,0,0,0,0,0,4.5516,4.5527,4.5639,4.5609,4.5609,4.56,4.5607,4.566,4.5674,4.5634,4.5632,4.5641,4.5689,4.5707,4.5713,4.5797,4.5726,4.573,4.5733,4.5735,4.5947,4.595,0,0,0,0,0,0,4.5512,4.5523,4.5637,4.5641,4.5558,4.5605,4.5612,4.5641,4.5673,4.5676,4.5643,4.5639,4.5701,4.5708,4.5715,4.5811,4.5731,4.5736,4.5738,4.5944,4.5948,4.5951,0,0,0,0,0,0,4.5509,4.5523,4.5635,4.5582,4.5596,4.561,4.5643,4.5644,4.5663,4.568,4.5682,4.566,4.5699,4.5708,4.5773,4.5813,4.5738,4.5742,4.5941,4.5945,4.5949,4.6003,0,0,0,0,0,0,4.5505,4.5522,4.5553,4.5583,4.5599,4.5693,4.5645,4.5647,4.5672,4.5667,4.5696,4.5699,4.5698,4.5766,4.5777,4.5818,4.5746,4.5938,4.5943,4.5948,4.5998,4.6009,4.6018,0,0,0,0,0,4.5499,4.5564,4.5555,4.5569,4.5638,4.5695,4.5704,4.5703,4.5675,4.5706,4.5717,4.5698,4.5806,4.5773,4.5785,4.5828,4.5935,4.5942,4.5948,4.5993,4.6007,4.6018,0,0,0,0,0,0,4.5536,4.5568,4.5558,4.5635,4.5663,4.569,4.5729,4.5717,4.5752,4.5746,4.5742,4.5748,4.5815,4.5828,4.5789,4.5907,4.5866,4.5875,4.5897,4.5909,4.5919,4.5915,4.575,0,0,0,0,0,4.5554,4.56,4.5624,4.5689,4.5704,4.5714,4.5739,4.5736,4.5764,4.5775,4.5791,4.5817,4.5857,4.5884,4.5921,4.5999,4.6005,4.6035,4.6045,4.6053,4.6061,4.6104,4.6118,4.5971,4.5971,4.5971,0,0,4.559,4.5613,4.5641,4.5697,4.5719,4.5765,4.5724,4.5774,4.5808,4.5782,4.5845,4.5857,4.5886,4.5958,4.599,4.597,4.6103,4.6061,4.6067,4.6071,4.6112,4.6126,4.6138,4.5976,4.5975,4.5974,0,0,4.5679,4.5701,4.5759,4.5782,4.5816,4.5822,4.5836,4.5865,4.5873,4.5936,4.5918,4.5957,4.6026,4.6048,4.6068,4.6168,4.6151,4.618,4.6232,4.6274,4.6286,4.6296,4.6333,4.6346,4.6187,4.6188,4.6188,0,4.5719,4.579,4.5789,4.5842,4.5867,4.5848,4.5906,4.5927,4.5971,4.5988,4.5965,4.6053,4.6071,4.6148,4.6173,4.6189,4.6204,4.6177,4.6285,4.6295,4.6304,4.6339,4.6353,4.6191,4.6191,4.619,4.619,0,4.5838,4.5887,4.5929,4.5975,4.6004,4.6059,4.6066,4.6095,4.609,4.6099,4.6163,4.6184,4.6227,4.6244,4.6238,4.6321,4.6308,4.6285,4.6244,4.6322,4.6354,4.6367,4.6196,4.6195,4.6194,4.6193,0,0,4.5953,4.5999,4.6014,4.6035,4.6072,4.6109,4.6162,4.6206,4.6232,4.6262,4.6307,4.6366,4.6346,4.6369,4.6365,4.6402,4.648,4.6374,4.6375,4.6394,4.6574,4.6592,4.6608,4.647,4.6472,4.6474,4.6572,0,4.6046,4.6143,4.6144,4.6232,4.6278,4.626,4.6307,4.6333,4.6343,4.6381,4.6391,4.6434,4.6403,4.6417,4.6452,4.6463,4.6517,4.6456,4.6511,4.6513,4.6505,4.6624,4.6643,4.6735,4.6584,4.6587,4.6588,0,4.6167,4.6205,4.6299,4.633,4.6349,4.6391,4.6432,4.6469,4.6499,4.6503,4.653,4.6521,4.6574,4.6531,4.6604,4.6564,4.6585,4.6594,4.6598,4.6604,4.6556,4.6634,4.6764,4.6778,4.6608,4.6606,4.6605,0,4.6244,4.6317,4.6383,4.6401,4.6439,4.6469,4.6486,4.6513,4.654,4.6574,4.6591,4.6631,4.6653,4.6683,4.6685,4.6653,4.6759,4.6716,4.6764,4.6764,4.6788,4.6786,4.6924,4.68,4.68,4.6799,4.6799,0,4.6348,4.6406,4.6418,4.6459,4.6523,4.6524,4.6587,4.66,4.6625,4.6667,4.6653,4.6692,4.6692,4.6731,4.6732,4.6793,4.6803,4.6807,4.6807,4.681,4.6809,4.6825,4.6819,4.6803,4.6802,4.6802,4.6801,0,4.6445,4.6455,4.6526,4.6557,4.6566,4.6612,4.6637,4.6675,4.6684,4.6737,4.6749,4.6762,4.6808,4.6813,4.6865,4.6866,4.694,4.6932,4.6932,4.6931,4.6979,4.6975,4.7132,4.7153,4.7014,4.7015,4.7016,0,4.6512,4.6556,4.6593,4.6621,4.6641,4.6686,4.6714,4.6715,4.6744,4.6782,4.6816,4.6861,4.6897,4.6971,4.6984,4.7025,4.7018,4.7071,4.7024,4.7026,4.7021,4.7019,4.7024,4.708,4.7081,4.7083,4.7084,0,4.663,4.6633,4.6675,4.6719,4.6754,4.6788,4.6819,4.6843,4.6848,4.6882,4.693,4.6959,4.7014,4.7059,4.7099,4.7113,4.71,4.7098,4.7112,4.7115,4.7113,4.7116,4.6958,4.7095,4.7094,4.7093,4.7092,4.7092,4.6714,4.6754,4.6786,4.6834,4.6859,4.6889,4.6927,4.6941,4.6983,4.7029,4.7027,4.708,4.7109,4.7161,4.7179,4.722,4.7203,4.7222,4.7227,4.7232,4.7238,4.7106,4.7227,4.7227,4.7226,4.7226,4.7226,0,4.6833,4.6853,4.6897,4.6944,4.6981,4.6967,4.7001,4.7033,4.7081,4.711,4.7147,4.7202,4.7246,4.7263,4.7305,4.7335,4.733,4.7346,4.7344,4.7348,4.725,4.7235,4.735,4.735,4.735,4.735,4.735,4.735,4.6899,4.6966,4.6973,4.7052,4.7071,4.7126,4.7147,4.7175,4.7198,4.7262,4.7299,4.7311,4.7335,4.7379,4.7418,4.7422,4.7438,4.7458,4.7459,4.7367,4.7355,4.7343,4.7329,4.7461,4.7462,4.7554,4.7555,4.7555]}]]